www.pogodaiklimat.ru
ПОГОДА в Псебае
Время
(UTC), дата
12 29.11
15 29.11
18 29.11
21 29.11
00 30.11
03 30.11
06 30.11
09 30.11
12 30.11
15 30.11
18 30.11
21 30.11
00 1.12
03 1.12
06 1.12
09 1.12
12 1.12
15 1.12
18 1.12
21 1.12
00 2.12
03 2.12
06 2.12
09 2.12
12 2.12
15 2.12
18 2.12
21 2.12
00 3.12
03 3.12
06 3.12
09 3.12
12 3.12
15 3.12
18 3.12
21 3.12
00 4.12
03 4.12
06 4.12
09 4.12
12 4.12
15 4.12
18 4.12
21 4.12
00 5.12
03 5.12
06 5.12
09 5.12
12 5.12
15 5.12
18 5.12
21 5.12
00 6.12
03 6.12
06 6.12
09 6.12
Ветер
(напр.,м/с)
Видим. Явления Облачность Т
(С)
Тd
(С)
f
(%)
Тe
(С)
Тes
(С)
Комфортность P
(гПа)
Po
(гПа)
Тmin
(С)
Tmax
(С)
R
(мм)
R24
(мм)
S
(см)
С 2 20 км 10/3 1000 м
[Sc Ci]
+13.6 -0.3 38 +13 +14 тепло 1010.6 939.1
Ю 2 10 км 10/10 1000 м
[Cb calv]
+8.1 +0.8 60 +7 +7 тепло 1011.9 939.0 +14.3
Ю 2 10 км 10/8 1000 м
[Cb calv Ci fib]
+5.7 +0.9 71 +3 +3 по сезону 1011.8 938.2
Ю 1 10 км 10/10 1000 м
[Cb calv]
+5.8 +0.9 71 +5 +5 тепло 1010.1 936.7
В 3 10 км 10/10 1000 м
[Cb calv]
+4.0 +0.4 77 0 0 по сезону 1009.3 935.5
Ю 3 10 км 10/9 1000 м
[Cb calv Ci fib]
+4.5 +0.9 77 +1 +1 по сезону 1009.1 935.5 +2.6
Ю 4 20 км в посл. час ливневой дождь 10/8 1000 м
[Cb calv Ci fib]
+8.7 +4.8 76 +6 +6 тепло 1008.5 936.0
Ю 3 20 км гроза, ливневой дождь 10/10 1000 м
[Cb cap]
+7.9 +6.1 88 +5 +5 тепло 1010.0 937.3
ЮВ 1 20 км {гроза, ливн. осадки} 10/9 1000 м
[Cb calv Ci]
+10.2 +4.6 68 +10 +10 тепло 1010.5 938.2
Ю 2 10 км 10/10 1000 м
[Cb calv]
+6.6 +4.6 87 +4 +4 по сезону 1014.8 941.3 +10.6 8
Ю 1 10 км {ливн. осадки} 4/4 1000 м
[Sc]
+2.8 +1.4 90 +1 +1 по сезону 1015.8 941.3
Ю 2 10 км ясно -0.8 -1.7 94 -5 -5 холодно 1016.9 941.3
ЮВ 2 10 км ясно -1.8 -2.6 94 -6 -6 холодно 1016.4 940.5
Ю 3 10 км ясно -2.6 -3.5 94 -8 -8 очень
холодно
1015.3 939.3 -3.8
ЮЗ 2 20 км 10/9 1000 м
[Cb calv Ci]
+2.1 -0.3 84 -1 -1 по сезону 1011.5 937.0
ЮЗ 3 20 км 10/10 1000 м
[Cb calv]
+12.1 +2.2 51 +11 +11 тепло 1006.7 935.2
С 5 20 км {ливн. осадки} 10/4 1000 м
[Cb calv Ci]
+8.0 +2.4 68 +5 +5 тепло 1009.7 936.9
С 6
{10}
10 км слаб. ливневой дождь 10/10 300 м
[Cb cap]
+5.0 +3.3 89 -0 -0 по сезону 1014.3 940.4 +12.5 0.4
С 2 10 км слаб. ливневой дождь 10/10 300 м
[Cb cap]
+1.9 -0.2 86 -1 -1 по сезону 1019.6 944.5
С 2 10 км {ливн. осадки} 10/10 300 м
[Cb calv]
+0.2 -1.2 90 -3 -3 прохладно 1022.4 946.7
СВ 3 2000 м слаб. ливневой снег 10/10 100 м
[Cb cap]
-0.7 -1.8 92 -6 -6 холодно 1024.3 948.2
С 3 4000 м слаб. ливневой снег 10/10 300 м
[Cb cap]
-1.5 -2.4 94 -7 -7 холодно 1026.5 950.0 -1.5 1 <0.5
С 2 10 км в посл. час снег {ливн. осадки} 10/10 300 м
[Cb calv]
-1.7 -2.8 92 -6 -6 холодно 1028.3 951.6 -1.8
С 4 4000 м дымка 10/10 300 м
[Cb calv]
-2.0 -3.1 92 -8 -8 очень
холодно
1028.4 951.6
С 3 4000 м дымка 10/10 300 м
[Cb calv]
-2.0 -3.1 92 -7 -7 холодно 1028.8 952.0
С 3 4000 м в посл. час туман 10/10 300 м
[Cb calv]
-1.9 -2.8 94 -7 -7 холодно 1028.1 951.4 -1.5 0.3
С 1 4000 м дымка {туман} 10/10 200 м
[Cb calv]
-1.4 -2.6 92 -4 -4 прохладно 1026.6 950.1
ЮЗ 1 4000 м дымка 10/10 200 м
[Cb calv]
-1.8 -3.0 91 -4 -4 прохладно 1025.3 948.8
ЮЗ 2 10 км 4/4 600 м
[Cb calv]
-5.9 -7.4 89 -10 -10 очень
холодно
1025.2 947.5
штиль 0 10 км ясно -9.0 -10.5 89 -10 -10 очень
холодно
1025.2 946.6 -9.1 0
Ю 2 20 км 10/5 1000 м
[Cb calv Ci]
-5.3 -7.0 88 -10 -9 очень
холодно
1022.3 945.0
Ю 1 20 км 10/8 1000 м
[Cb calv Ci]
-0.7 -3.5 81 -3 -2 прохладно 1019.0 943.2
ЮЗ 1 20 км 10/9 1000 м
[Cb calv Ci]
+0.9 -2.4 79 -1 -1 по сезону 1016.0 940.9
Ю 3 10 км 10/10 1000 м
[Cb calv]
-0.0 -1.9 87 -5 -5 холодно 1015.6 940.3 +1.3
СВ 2 10 км 10/10 1000 м
[Cb calv]
+0.8 -0.5 91 -3 -3 прохладно 1019.1 943.8
С 2 10 км слаб. ливневой снег 10/10 600 м
[Cb cap]
-1.0 -2.0 93 -5 -5 холодно 1021.0 945.0
С 2 10 км слаб. ливневой снег 10/10 600 м
[Cb cap]
-1.7 -2.6 94 -6 -6 холодно 1021.9 945.7
С 4 4000 м слаб. ливневой снег 10/10 300 м
[Cb cap]
-3.0 -4.1 92 -9 -9 очень
холодно
1023.8 947.1 -3.0 4 8
штиль 0 10 км слаб. ливневой снег 10/10 300 м
[Cb cap]
-3.6 -4.7 92 -5 -5 холодно 1026.1 949.1 -4.0
штиль 0 20 км слаб. ливневой снег 10/10 300 м
[Cb cap]
-2.4 -3.9 89 -4 -4 прохладно 1026.0 949.3
СВ 1 20 км слаб. ливневой снег 10/10 600 м
[Cb cap]
-2.7 -4.6 87 -5 -5 холодно 1026.9 950.0
штиль 0 10 км в посл. час ливневой снег 10/10 600 м
[Cb cap]
-4.2 -5.7 89 -5 -5 холодно 1028.9 951.5 -1.6 3
ЮВ 1 10 км {ливн. осадки} 10/8 600 м
[Cb calv Ci sp]
-10.0 -11.4 89 -12 -12 очень
холодно
1032.5 953.1
Ю 2 10 км ясно -11.8 -13.6 86 -16 -16 очень
холодно
1033.5 953.5
Ю 2 10 км ясно -14.5 -16.4 85 -19 -19 очень
холодно
1034.6 953.7
Ю 1 10 км ясно -15.5 -17.5 85 -18 -18 очень
холодно
1034.2 953.0 -16.0 9
Ю 3 20 км ясно -13.5 -15.6 84 -20 -19 очень
холодно
1035.4 954.8 -16.1
Ю 2 20 км ясно -1.7 -6.6 69 -5 -2 холодно 1030.9 954.0
С 2 20 км 10/0
[Cc]
+0.5 -4.7 68 -3 -2 прохладно 1029.7 953.5
штиль 0 10 км ясно -7.6 -9.0 90 -8 -8 очень
холодно
1033.3 954.5 +1.7
штиль 0 10 км ясно -9.9 -11.3 89 -10 -10 очень
холодно
1035.5 955.9
ЮЗ 3 10 км ясно -7.1 -8.4 90 -13 -13 очень
холодно
1034.6 955.9
Ю 1 10 км ясно -9.6 -11.1 89 -12 -12 очень
холодно
1035.3 955.8
ЮВ 2 10 км ясно -11.0 -12.7 87 -16 -16 очень
холодно
1036.0 956.1 -11.4 9
штиль 0 20 км ясно -7.8 -9.3 89 -9 -8 очень
холодно
1035.5 956.5 -12.6
штиль 0 20 км ясно +2.2 -6.0 55 +2 +6 по сезону 1031.5 955.5
Местоположение метеостанции Псебай (Краснодарский край, Россия): широта 44.13 долгота 40.78 высота над уровнем моря 621 м.
В архиве по умолчанию представлена погода в Псебае за последнюю неделю. Архивные данные за месяц целиком и за предыдущие месяцы, начиная с января 2011 года, Вы можете получить, выбрав интересующий диапазон дат из раскрывающегося списка и нажав кнопку "Найти!".
*Определитесь, кто Вы:
Внимание! Время в таблицах - всемирное. Для получения местного времени необходимо прибавить поправку, которая равна 3 ч.
Смотрите также архив погоды в соседних городах и на ближайших метеорологических станциях:
Партнеры нашего сайта:      
Пояснения к столбцам:
  • Ветер - указаны скорость ветра в м/с - средняя за 10 мин, порывы в срок и между сроками (в фигурных скобках) и направление, откуда дует ветер: С - северный,
  • СВ - северо-восточный, В - восточный, ЮВ - юго-восточный, Ю - южный, ЮЗ - юго-западный, З - западный, СЗ - северо-западный.
  • Видимость - горизонтальная дальность видимости в метрах или километрах. При видимости от 1 до 10 км при отсутствии осадков обычно наблюдается дымка, при ухудшении видимости до 1 км и менее - туман. В сухую погоду видимость может ухудшаться дымом, пылью или мглою.
  • Явления - указаны атмосферные явления, наблюдавшиеся в срок или в последний час перед сроком; фигурными скобками обозначены явления, наблюдавшиеся между сроками (за 1-3 часа до срока); квадратными скобками обозначены град или гололедные отложения с указанием их диаметра в мм.
  • Облачность - указаны через наклонную черту общая и нижняя облачность в баллах и высота нижней границы облаков в метрах; квадратными скобками обозначены формы облаков: Ci - перистые, Cs - перисто-слоистые, Cc - перисто-кучевые, Ac - высококучевые, As - высокослоистые, Sc - слоисто-кучевые, Ns - слоисто-дождевые, Cu - кучевые, Cb - кучево-дождевые. Подробнее классификацию облаков см. в Атласе облаков (PDF).
  • T - Температура воздуха - температура, измеренная на высоте 2 м над землей.
  • Td - Температура точки росы - температура, при понижении до которой содержащийся в воздухе водяной пар достигнет насыщения.
  • f - Относительная влажность воздуха - влажноcть воздуха, измеренная на высоте 2 м над землей.
  • Te - Эффективная температура - температура, которую ощущает одетый по сезону человек в тени. Характеристика душности погоды. При расчете учитывается влияние влажности воздуха и скорости ветра на теплоощущения человека.
  • Tes - Эффективная температура на солнце - температура, которую ощущает человек, с поправкой на солнечный нагрев. Характеристика знойности погоды. Зависит от высоты солнца над горизонтом, облачности и скорости ветра. Ночью, в пасмурную погоду, а также при ветре 12 м/с и более поправка равна нулю.
  • P - Атмосферное давление - приведенное к уровню моря атмосферное давление.
  • Po - Атмосферное давление - измеренное на уровне метеостанции атмосферное давление.
  • Tmin - Минимальная температура - минимум температуры воздуха на высоте 2 м над землей.
  • Tmax - Максимальная температура - максимум температуры воздуха на высоте 2 м над землей.
  • R - Количество осадков - Количество выпавших осадков за период времени, мм. При наведении курсора мыши на число - период времени, за который выпало указанное количество осадков.
  • R24 - Количество осадков - Количество выпавших осадков за 24 часа, мм.
  • S - Снежный покров - Высота снежного покрова, см. При наведении курсора мыши на число - состояние снежного покрова и степень покрытия местности в баллах.